Regional Weather Roundup
Issued by NWS

Home | Current Version | Previous Version | Text Only | Print | Product List | Glossary Off
Versions: 1 2 3 4 5 6 7 8 9 10 11 12 13 14 15 16 17 18 19 20 21 22 23 24 25 26 27 28 29 30 31 32 33 34 35 36 37 38 39 40 41 42 43 44 45 46 47 48 49 50

000
ASUS45 KPSR 301110
RWRAZ

ARIZONA REGIONAL HOURLY WEATHER ROUNDUP
NATIONAL WEATHER SERVICE PHOENIX AZ
400 AM MST TUE SEP 30 2014

NOTE: FAIR INDICATES FEW OR NO CLOUDS BELOW 12,000 FEET WITH NO
SIGNIFICANT WEATHER AND/OR OBSTRUCTIONS TO VISIBILITY.

AZZ001>003-036-301200-
NORTHWEST ARIZONA

CITY           SKY/WX    TMP DP  RH WIND       PRES   REMARKS
BULLHEAD CITY  CLEAR     68  37  32 CALM      29.85S
KINGMAN        NOT AVBL
$$

AZZ004>008-015-016-018-301200-
NORTH CENTRAL ARIZONA

CITY           SKY/WX    TMP DP  RH WIND       PRES   REMARKS
GRAND CANYON   CLEAR     34  32  92 CALM      30.11F
PRESCOTT       CLEAR     47  37  68 S9        30.04F
FLAGSTAFF      CLEAR     34  31  88 CALM      30.13S
PAYSON         CLEAR     50  37  62 CALM      30.05S
$$

AZZ009>014-017-301200-
NORTHEAST ARIZONA

CITY           SKY/WX    TMP DP  RH WIND       PRES   REMARKS
WINSLOW        CLEAR     44  40  85 SW3       30.05S
SAINT JOHNS    CLEAR     46  35  65 S5        30.06S
SHOW LOW       CLEAR     37  34  87 CALM      30.11F
$$

AZZ023-301200-
GREATER PHOENIX AREA

CITY           SKY/WX    TMP DP  RH WIND       PRES   REMARKS
PHOENIX        CLEAR     69  52  54 E3        29.83F
BUCKEYE          N/A     63  52  67 CALM      29.84F
LUKE AFB       CLEAR     63  50  62 N3        29.83F
DEER VALLEY    CLEAR     64  50  60 NE3       29.84F
SCOTTSDALE     CLEAR     64  53  67 CALM      29.86F
MESA-GATEWAY   CLEAR     61  54  77 E5        29.87S
$$

AZZ027-028-301200-
SOUTHWEST MARICOPA COUNTY AND PINAL COUNTY

CITY           SKY/WX    TMP DP  RH WIND       PRES   REMARKS
CASA GRANDE    CLEAR     61  48  63 CALM      29.86F
$$

AZZ503-504-507>509-301200-
SOUTHEAST ARIZONA

CITY           SKY/WX    TMP DP  RH WIND       PRES   REMARKS
TUCSON         CLEAR     62  45  53 SE7       29.94F
DAVIS-MONTHAN  CLEAR     60  44  54 SE6       29.93S
NOGALES        CLEAR     53  48  83 CALM      29.99R
SIERRA VISTA   PTCLDY    57  54  88 CALM      30.02S
DOUGLAS        CLEAR     59  48  67 NE5       29.99F
SAFFORD        CLEAR     58  36  43 CALM      29.93S
$$

AZZ020-021-025-026-031-301200-
SOUTHWEST ARIZONA

CITY           SKY/WX    TMP DP  RH WIND       PRES   REMARKS
YUMA           CLEAR     72  45  37 N5        29.80F
$$

CAZ031-033-041-043-047-048-061-301200-
SOUTHERN CALIFORNIA

CITY           SKY/WX    TMP DP  RH WIND       PRES   REMARKS
DOWNTOWN L.A.  CLEAR     64  59  83 CALM      29.85F
L.A. AIRPORT   CLEAR     63  60  90 E5        29.85F
SAN DIEGO      CLEAR     67  58  72 CALM      29.86F
BURBANK        CLEAR     63  46  54 CALM      29.86F
ONTARIO        CLEAR     63  54  72 CALM      29.87F
RIVERSIDE      CLEAR     61  54  77 S3        29.88F
PALM SPRINGS   CLEAR     72  44  36 NW6       29.85S
EL CENTRO NAS  CLEAR     69  37  30 SW6       29.80F
IMPERIAL       CLEAR     66  42  41 SW5       29.79F
BLYTHE         CLEAR     71  41  33 SW9       29.81F
NEEDLES        CLEAR     70  39  32 CALM      29.85S
$$

NVZ020-UTZ003-301200-
SOUTHERN NEVADA-UTAH

CITY           SKY/WX    TMP DP  RH WIND       PRES   REMARKS
LAS VEGAS      CLEAR     67  38  34 S10       29.87F
SALT LAKE CITY CLOUDY    54  47  77 CALM      29.97F
$$

NMZ009-TXZ055-301200-
NEW MEXICO-WEST TEXAS

CITY           SKY/WX    TMP DP  RH WIND       PRES   REMARKS
ALBUQUERQUE    CLEAR     50  36  58 CALM      30.04F
EL PASO        PTCLDY    70  54  56 SW7       29.93S
$$


........................KEY........................
SKY/WX - SKY CONDITION/WEATHER
TMP    - TEMPERATURE IN FAHRENHEIT
DP     - DEW POINT IN FAHRENHEIT
RH     - RELATIVE HUMIDITY IN PERCENT
WIND   - DIRECTION AND SPEED IN MILES PER HOUR (MPH)
VRB    - VARIABLE WIND DIRECTION
PRES   - MEAN SEA LEVEL PRESSURE IN INCHES OF MERCURY
         F - FALLING PRESSURE   R - RISING PRESSURE
         S - STEADY PRESSURE
VSB    - VISIBILITY IN MILES
HX     - HEAT INDEX IN FAHRENHEIT
WCI    - WIND CHILL INDEX IN FAHRENHEIT
TC     - TEMPERATURE IN CELSIUS WHICH IS ALSO KNOWN AS
         TEMPERATURE IN CENTIGRADE
AFB    - AIR FORCE BASE
         LUKE AFB IS LUKE AIR FORCE BASE
         DAVIS-MONTHAN IS DAVIS-MONTHAN AIR FORCE BASE
NAS    - NAVAL AIR STATION
         EL CENTRO NAS IS EL CENTRO NAVAL AIR STATION
N/A    - NOT AVAILABLE


USA.gov is the U.S. government's official web portal to all federal, state and local government web resources and services.